Home > Weather > Virudhunagar > Past weeks

Flag for India Past Weather in Virudhunagar, Tamil Nadu, India — Yesterday and Last 2 Weeks

Now
93 °F

Passing clouds.


Feels Like: 101 °F
Forecast: 76 / 98 °F
Wind: 8 mph from West

Location: Tiruchchirapalli

Current Time: May 31, 2016 at 11:32:33 AM

Latest Report: May 31, 2016 at 11:00 AM


Visibility: N/A

Pressure: 29.77 "Hg

Humidity: 49%

Dew Point: 72 °F

Location of VirudhunagarLocation

Past Weather in Virudhunagar — Graph

°F

Virudhunagar Temperature Yesterday

Maximum temperature yesterday: 100 °F (at 1:30 PM)
Minimum temperature yesterday: 79 °F (at 9:00 PM)
Average temperature yesterday: 89 °F

High & Low Weather Summary for the Past Weeks

 TemperatureHumidityPressure
High104 °F (May 24, 3:30 PM)100% (May 16, 9:30 AM)29.80 "Hg (May 16, 9:30 AM)
Low73 °F (May 18, 6:00 AM)33% (May 24, 3:30 PM)29.53 "Hg (May 17, 4:00 PM)
Average88 °F64%29.69 "Hg
* Reported May 16 9:30 AM — May 31 10:00 AM, Virudhunagar, Weather by CustomWeather, © 2016

Note: Actual official high and low records may vary slightly from our data, if they occured in-between our weather recording intervals... More about our weather records

Advertising

Virudhunagar Weather History for the Previous 24 Hours

Scroll right to see more
 ConditionsComfort  
Time TempWeatherWind HumidityBarometerVisibility
10:00 AM
Tue, May 31
91 °FScattered clouds.9 mph56%29.77 "HgN/A
9:30 AM90 °FScattered clouds.13 mph59%29.77 "Hg5 mi
9:00 AM88 °FScattered clouds.13 mph62%29.77 "Hg5 mi
8:30 AM86 °FScattered clouds.13 mph66%29.77 "Hg5 mi
8:00 AM84 °FScattered clouds.14 mph70%29.74 "Hg5 mi
7:30 AM84 °FScattered clouds.9 mph74%29.74 "Hg4 mi
7:00 AM84 °FScattered clouds.9 mph70%29.74 "Hg4 mi
6:30 AM84 °FScattered clouds.9 mph70%29.71 "Hg4 mi
5:30 AM82 °FPassing clouds.10 mph74%29.68 "Hg3 mi
5:00 AM81 °FFog.9 mph79%29.68 "Hg3 mi
4:30 AM81 °FFog.9 mph79%29.68 "Hg3 mi
4:00 AM81 °FFog.12 mph79%29.68 "Hg3 mi
3:30 AM81 °FFog.12 mph79%29.68 "Hg3 mi
3:00 AM81 °FFog.12 mph79%29.68 "Hg3 mi
2:30 AM82 °FFog.7 mph79%29.68 "Hg3 mi
2:00 AM82 °FFog.14 mph79%29.71 "Hg3 mi
1:30 AM82 °FFog.12 mph79%29.71 "Hg3 mi
1:00 AM82 °FFog.14 mph79%29.71 "Hg3 mi
12:30 AM82 °FFog.12 mph79%29.74 "Hg3 mi
12:00 AM82 °FFog.12 mph79%29.74 "Hg3 mi
11:30 PM
Mon, May 30
82 °FFog.10 mph79%29.74 "Hg3 mi
11:00 PM81 °FMostly cloudy.9 mph84%29.74 "Hg3 mi
10:30 PM81 °FMostly cloudy.6 mph84%29.74 "Hg3 mi
10:00 PM81 °FMostly cloudy.7 mph84%29.74 "Hg3 mi
9:30 PM81 °FMostly cloudy.No wind84%29.74 "Hg3 mi
9:00 PM79 °FThunderstorms. Mostly cloudy.3 mph94%29.74 "Hg1 mi
8:30 PM81 °FThunderstorms. Partly cloudy.9 mph84%29.77 "Hg2 mi
8:00 PM82 °FThunderstorms. Partly cloudy.10 mph79%29.74 "Hg2 mi
7:30 PM90 °FPartly cloudy.16 mph55%29.68 "Hg3 mi
7:00 PM93 °FBroken clouds.9 mph49%29.68 "Hg4 mi
6:30 PM97 °FScattered clouds.No wind42%29.65 "Hg4 mi
6:00 PM99 °FScattered clouds.3 mph39%29.65 "Hg5 mi
5:30 PM99 °FPassing clouds.5 mph39%29.62 "HgN/A
4:30 PM100 °FPassing clouds.9 mph37%29.62 "HgN/A
4:00 PM100 °FPassing clouds.7 mph37%29.62 "HgN/A
3:30 PM100 °FScattered clouds.7 mph37%29.62 "HgN/A
3:00 PM100 °FScattered clouds.9 mph37%29.65 "HgN/A
2:30 PM100 °FPassing clouds.9 mph40%29.65 "HgN/A
2:00 PM100 °FPassing clouds.9 mph40%29.68 "HgN/A
1:30 PM100 °FPassing clouds.10 mph40%29.68 "HgN/A
1:00 PM99 °FPassing clouds.8 mph42%29.68 "HgN/A
12:30 PM99 °FPassing clouds.9 mph42%29.71 "HgN/A
12:00 PM97 °FPassing clouds.9 mph44%29.74 "Hg5 mi
11:30 AM95 °FPassing clouds.9 mph47%29.74 "Hg4 mi
11:00 AM93 °FPassing clouds.9 mph49%29.74 "Hg4 mi
Weather by CustomWeather, © 2016

See weather overviewHow to use our weather pages